FW8254 Weather Reports


time (UTC)temp
C
wind
direction
speed
KPH
gust
KPH
rain 1hr
cm
rain 24hr
cm
rain mn
cm
humidity
%
barometer
mb
20260903073747 26 335 1.6 3.2 0.00 0.00 0.00 84 1010.9
20260903073243 26 339 0.0 1.6 0.00 0.00 0.00 83 1010.8
20260903072739 26 338 1.6 1.6 0.00 0.00 0.00 83 1010.7
20260903072235 26 331 1.6 3.2 0.00 0.00 0.00 83 1011.0
20260903071731 26 338 0.0 1.6 0.00 0.00 0.00 83 1010.8
20260903071227 26 340 0.0 0.0 0.00 0.00 0.00 82 1010.6
20260903070726 26 340 0.0 0.0 0.00 0.00 0.00 82 1010.7
20260903070222 26 341 0.0 0.0 0.00 0.00 0.00 82 1010.9
20260903065717 26 341 0.0 0.0 0.00 0.00 0.00 82 1010.7
20260903065216 26 341 0.0 0.0 0.00 0.00 0.00 82 1010.5
20260903064716 26 342 0.0 0.0 0.00 0.00 0.00 82 1010.6
20260903064211 26 342 0.0 0.0 0.00 0.00 0.00 81 1010.5
20260903063707 26 342 0.0 0.0 0.00 0.00 0.00 81 1010.6
20260903063201 26 342 0.0 0.0 0.00 0.00 0.00 81 1010.7
20260903062657 26 342 0.0 0.0 0.00 0.00 0.00 80 1010.7
20260903062152 26 341 0.0 0.0 0.00 0.00 0.00 80 1010.6
20260903061647 26 341 0.0 0.0 0.00 0.00 0.00 80 1010.4
20260903061146 26 341 0.0 0.0 0.00 0.00 0.00 79 1010.7
20260903060642 26 338 0.0 1.6 0.00 0.00 0.00 79 1010.5
20260903060137 26 340 0.0 0.0 0.00 0.00 0.00 79 1010.5
20260903055635 26 340 0.0 1.6 0.00 0.00 0.00 79 1010.6
20260903055133 27 338 0.0 1.6 0.00 0.00 0.00 79 1010.4
20260903054628 26 333 1.6 3.2 0.00 0.00 0.00 80 1010.5
20260903054124 26 344 0.0 0.0 0.00 0.00 0.00 80 1010.6
20260903053620 26 346 0.0 0.0 0.00 0.00 0.00 81 1010.9
20260903053115 26 346 0.0 0.0 0.00 0.00 0.00 81 1011.1
20260903052611 26 346 0.0 0.0 0.00 0.00 0.00 82 1011.4
20260903052106 26 346 0.0 1.6 0.00 0.00 0.00 82 1011.1
20260903051601 26 356 0.0 0.0 0.00 0.00 0.00 83 1011.1
20260903051056 26 356 0.0 0.0 0.00 0.00 0.00 85 1011.3
20260903050555 26 356 0.0 0.0 0.00 0.00 0.00 86 1011.1
20260903050051 26 356 0.0 1.6 0.00 0.00 0.00 87 1011.2
20260903045550 26 356 0.0 0.0 0.00 0.00 0.00 87 1011.2
20260903045047 26 357 0.0 0.0 0.00 0.00 0.00 87 1011.0
20260903044543 26 356 0.0 0.0 0.00 0.00 0.00 87 1011.1
20260903044038 26 356 0.0 0.0 0.00 0.00 0.00 87 1011.2
20260903043534 26 356 0.0 0.0 0.00 0.00 0.00 87 1011.1
20260903043033 27 356 0.0 0.0 0.00 0.00 0.00 87 1011.0
20260903042528 27 356 0.0 0.0 0.00 0.00 0.00 86 1011.0
20260903042024 27 357 0.0 1.6 0.00 0.00 0.00 86 1010.8
20260903041520 27 355 0.0 1.6 0.00 0.00 0.00 86 1011.1
20260903041015 27 351 0.0 1.6 0.00 0.00 0.00 86 1010.9
20260903040514 27 349 0.0 0.0 0.00 0.00 0.00 85 1011.0
20260903040011 27 348 0.0 0.0 0.00 0.00 0.00 85 1011.1
20260903035506 27 348 0.0 0.0 0.00 0.00 0.00 84 1011.0
20260903035001 27 348 0.0 0.0 0.00 0.00 0.00 84 1011.3
20260903034456 27 348 0.0 0.0 0.00 0.00 0.00 83 1011.0
20260903033956 27 347 0.0 0.0 0.00 0.00 0.00 82 1011.3
20260903033451 28 347 0.0 0.0 0.00 0.00 0.00 81 1011.3
20260903032946 28 348 0.0 0.0 0.00 0.00 0.00 80 1011.4
20260903032442 27 348 0.0 1.6 0.00 0.00 0.00 78 1011.4
20260903031937 27 352 0.0 0.0 0.00 0.00 0.00 77 1011.4
20260903031431 27 352 0.0 0.0 0.00 0.00 0.00 77 1011.3
20260903030926 27 352 0.0 0.0 0.00 0.00 0.00 78 1011.4
20260903030422 27 352 0.0 0.0 0.00 0.00 0.00 79 1011.4
20260903025918 27 352 0.0 0.0 0.00 0.00 0.00 79 1011.5
20260903025414 27 352 0.0 0.0 0.00 0.00 0.00 79 1011.2
20260903024908 27 352 0.0 0.0 0.00 0.00 0.00 79 1011.6
20260903024402 27 352 0.0 0.0 0.00 0.00 0.00 79 1011.4
20260903023857 27 352 0.0 0.0 0.00 0.00 0.00 78 1011.2
20260903023353 27 353 0.0 0.0 0.00 0.00 0.00 78 1011.5
20260903022848 27 351 0.0 0.0 0.00 0.00 0.00 78 1011.3
20260903022347 27 352 0.0 1.6 0.00 0.00 0.00 77 1011.3
20260903021846 27 346 0.0 0.0 0.00 0.00 0.00 77 1011.3
20260903021342 28 346 0.0 1.6 0.00 0.00 0.00 77 1011.6
20260903020841 28 352 0.0 0.0 0.00 0.00 0.00 77 1011.5
20260903020337 28 353 0.0 0.0 0.00 0.00 0.00 78 1011.6
20260903015831 28 355 0.0 3.2 0.00 0.00 0.00 78 1011.4
20260903015327 29 351 1.6 4.8 0.00 0.00 0.00 79 1011.5
20260903014822 30 358 1.6 3.2 0.00 0.00 0.00 77 1011.4
20260903014322 30 352 0.0 0.0 0.00 0.00 0.00 73 1011.2
20260903013817 30 347 0.0 1.6 0.00 0.00 0.00 71 1011.4
20260903013316 30 352 0.0 1.6 0.00 0.00 0.00 71 1011.1
20260903012815 30 348 0.0 0.0 0.00 0.00 0.00 71 1011.0
20260903012310 30 351 0.0 1.6 0.00 0.00 0.00 70 1010.9
20260903011809 29 351 0.0 1.6 0.00 0.00 0.00 73 1011.1
20260903011309 29 350 0.0 8.0 0.00 0.00 0.00 77 1011.1
20260903010804 30 10 3.2 3.2 0.00 0.00 0.00 81 1010.8
20260903010300 30 344 0.0 0.0 0.00 0.00 0.00 80 1010.4
20260903005758 30 347 0.0 0.0 0.00 0.00 0.00 80 1010.6
20260903005253 30 343 0.0 1.6 0.00 0.00 0.00 79 1010.5
20260903004749 30 338 0.0 0.0 0.00 0.00 0.00 79 1010.5
20260903004244 30 338 0.0 0.0 0.00 0.00 0.00 78 1010.4
20260903003740 30 338 0.0 0.0 0.00 0.00 0.00 77 1010.5
20260903003234 30 338 0.0 0.0 0.00 0.00 0.00 76 1010.3
20260903002729 30 337 0.0 0.0 0.00 0.00 0.00 74 1010.1
20260903002223 30 337 0.0 1.6 0.00 0.00 0.00 73 1010.2
20260903001719 30 336 0.0 0.0 0.00 0.00 0.00 73 1010.2
20260903001219 30 339 0.0 0.0 0.00 0.00 0.00 73 1009.9
20260903000714 31 340 0.0 0.0 0.00 0.00 0.00 72 1009.8
20260903000213 30 22 0.0 0.0 0.00 0.00 0.00 71 1010.0
20260902235712 30 22 0.0 0.0 0.00 0.00 0.00 70 1009.9
20260902235208 31 22 0.0 0.0 0.00 0.00 0.00 73 1009.8
20260902234707 31 22 0.0 0.0 0.00 0.00 0.00 73 1010.1
20260902234206 31 22 0.0 0.0 0.00 0.00 0.00 72 1010.0
20260902233701 31 22 0.0 0.0 0.00 0.00 0.00 71 1009.8
20260902233201 32 22 0.0 0.0 0.00 0.00 0.00 71 1009.9
20260902232659 32 22 0.0 0.0 0.00 0.00 0.00 70 1010.0
20260902232159 32 21 0.0 0.0 0.00 0.00 0.00 69 1009.8
20260902231653 32 20 0.0 0.0 0.00 0.00 0.00 68 1009.9
20260902231148 32 19 1.6 1.6 0.00 0.00 0.00 69 1010.2
20260902230643 32 20 0.0 0.0 0.00 0.00 0.00 61 1010.1
20260902230142 33 20 0.0 0.0 0.00 0.00 0.00 61 1010.1
20260902225637 33 20 0.0 0.0 0.00 0.00 0.00 61 1009.8
20260902225137 33 20 0.0 0.0 0.00 0.00 0.00 61 1010.0
20260902224635 33 20 0.0 0.0 0.00 0.00 0.00 59 1010.0
20260902224131 34 20 0.0 0.0 0.00 0.00 0.00 57 1009.7
20260902223628 34 20 0.0 0.0 0.00 0.00 0.00 57 1010.1
20260902223127 34 20 0.0 0.0 0.00 0.00 0.00 56 1009.8
20260902222626 34 20 0.0 0.0 0.00 0.00 0.00 57 1009.9
20260902222125 34 20 0.0 0.0 0.00 0.00 0.00 56 1010.1
20260902221619 34 20 0.0 0.0 0.00 0.00 0.00 56 1010.0
20260902221114 35 20 0.0 0.0 0.00 0.00 0.00 55 1010.0
20260902220610 35 20 0.0 0.0 0.00 0.00 0.00 54 1009.9
20260902220104 35 20 1.6 3.2 0.00 0.00 0.00 53 1009.9
20260902215601 35 23 0.0 0.0 0.00 0.00 0.00 53 1009.9
20260902215056 35 23 0.0 1.6 0.00 0.00 0.00 52 1010.2
20260902214555 35 25 0.0 1.6 0.00 0.00 0.00 52 1010.0
20260902214055 35 21 1.6 3.2 0.00 0.00 0.00 50 1010.1
20260902213550 35 14 3.2 3.2 0.00 0.00 0.00 53 1009.9
20260902213049 35 33 0.0 1.6 0.00 0.00 0.00 50 1010.2
20260902212545 35 4 1.6 3.2 0.00 0.00 0.00 52 1010.2
20260902212041 35 35 0.0 1.6 0.00 0.00 0.00 50 1009.9
20260902211537 35 7 1.6 1.6 0.00 0.00 0.00 51 1010.0
20260902211032 35 36 0.0 1.6 0.00 0.00 0.00 52 1010.3
20260902210532 35 39 0.0 1.6 0.00 0.00 0.00 51 1010.4
20260902210026 35 33 0.0 1.6 0.00 0.00 0.00 50 1010.1
20260902205520 35 17 0.0 3.2 0.00 0.00 0.00 51 1010.2
20260902205016 35 16 0.0 1.6 0.00 0.00 0.00 52 1010.2
20260902204515 35 32 0.0 0.0 0.00 0.00 0.00 50 1010.3
20260902204010 35 19 1.6 3.2 0.00 0.00 0.00 51 1010.2
20260902203506 35 29 0.0 1.6 0.00 0.00 0.00 51 1010.4
20260902203005 35 1 1.6 3.2 0.00 0.00 0.00 50 1010.5
20260902202501 35 10 1.6 1.6 0.00 0.00 0.00 50 1010.5
20260902201957 35 17 0.0 3.2 0.00 0.00 0.00 49 1010.7
20260902201458 36 17 1.6 1.6 0.00 0.00 0.00 48 1010.7
20260902200958 35 34 0.0 1.6 0.00 0.00 0.00 49 1010.8
20260902200453 35 38 0.0 1.6 0.00 0.00 0.00 51 1010.9
20260902195948 36 14 3.2 3.2 0.00 0.00 0.00 49 1010.6
20260902195438 36 32 0.0 0.0 0.00 0.00 0.00 47 1010.9
20260902194932 35 29 0.0 3.2 0.00 0.00 0.00 50 1010.9
20260902194432 36 35 0.0 1.6 0.00 0.00 0.00 49 1010.8
20260902193927 36 26 0.0 1.6 0.00 0.00 0.00 49 1011.1
20260902193423 36 21 0.0 1.6 0.00 0.00 0.00 49 1011.0
20260902192921 36 24 0.0 3.2 0.00 0.00 0.00 51 1011.1
20260902192420 36 34 0.0 3.2 0.00 0.00 0.00 50 1011.1
20260902191919 36 28 1.6 3.2 0.00 0.00 0.00 49 1011.2
20260902191415 36 23 0.0 0.0 0.00 0.00 0.00 51 1011.3
20260902190910 35 17 3.2 3.2 0.00 0.00 0.00 51 1011.3
20260902190405 36 32 4.8 9.7 0.00 0.00 0.00 50 1011.4
20260902185901 35 28 0.0 3.2 0.00 0.00 0.00 51 1011.2
20260902185356 35 51 3.2 4.8 0.00 0.00 0.00 51 1011.4
20260902184851 35 21 0.0 1.6 0.00 0.00 0.00 52 1011.6
20260902184347 35 25 0.0 3.2 0.00 0.00 0.00 53 1011.6
20260902183842 35 33 0.0 1.6 0.00 0.00 0.00 53 1011.8
20260902183339 35 33 0.0 3.2 0.00 0.00 0.00 53 1011.7
20260902182834 34 21 1.6 3.2 0.00 0.00 0.00 57 1011.8
20260902182331 33 31 1.6 1.6 0.00 0.00 0.00 57 1011.9
20260902181827 33 33 1.6 3.2 0.00 0.00 0.00 57 1012.0
20260902181322 33 22 0.0 0.0 0.00 0.00 0.00 57 1011.8
20260902180821 33 21 0.0 1.6 0.00 0.00 0.00 55 1011.6
20260902180317 33 9 0.0 3.2 0.00 0.00 0.00 56 1011.9
20260902175812 33 11 0.0 3.2 0.00 0.00 0.00 56 1011.9
20260902175308 33 14 0.0 0.0 0.00 0.00 0.00 56 1012.0
20260902174803 33 14 0.0 0.0 0.00 0.00 0.00 57 1012.0
20260902174300 33 13 0.0 3.2 0.00 0.00 0.00 56 1011.9
20260902173755 33 351 8.0 11.3 0.00 0.00 0.00 55 1012.2
20260902173249 33 330 4.8 4.8 0.00 0.00 0.00 54 1012.2
20260902172744 33 5 3.2 4.8 0.00 0.00 0.00 55 1012.2
20260902172243 33 10 1.6 4.8 0.00 0.00 0.00 57 1012.3
20260902171738 33 354 3.2 4.8 0.00 0.00 0.00 57 1012.3
20260902171234 32 341 4.8 4.8 0.00 0.00 0.00 59 1012.3
20260902170730 32 349 3.2 4.8 0.00 0.00 0.00 60 1012.5
20260902170225 32 8 1.6 3.2 0.00 0.00 0.00 60 1012.6
20260902165720 32 349 3.2 8.0 0.00 0.00 0.00 58 1012.4
20260902165215 32 336 3.2 4.8 0.00 0.00 0.00 59 1012.5
20260902164714 32 353 3.2 4.8 0.00 0.00 0.00 59 1012.7
20260902164209 32 35 0.0 3.2 0.00 0.00 0.00 60 1012.5
20260902163704 32 23 1.6 3.2 0.00 0.00 0.00 61 1012.7
20260902163204 32 11 3.2 3.2 0.00 0.00 0.00 63 1012.7
20260902162702 32 15 1.6 3.2 0.00 0.00 0.00 64 1012.5
20260902162156 32 300 4.8 8.0 0.00 0.00 0.00 62 1012.7
20260902161652 32 357 3.2 4.8 0.00 0.00 0.00 64 1012.9
20260902161147 31 344 3.2 3.2 0.00 0.00 0.00 63 1012.8
20260902160644 31 347 4.8 8.0 0.00 0.00 0.00 62 1012.9
20260902160138 31 1 1.6 3.2 0.00 0.00 0.00 66 1012.9
20260902155637 31 10 1.6 3.2 0.00 0.00 0.00 66 1012.9
20260902155136 31 0 3.2 3.2 0.00 0.00 0.00 66 1012.8
20260902154631 31 13 0.0 1.6 0.00 0.00 0.00 68 1012.9
20260902154126 31 11 1.6 1.6 0.00 0.00 0.00 68 1013.0
20260902153625 30 353 1.6 3.2 0.00 0.00 0.00 68 1013.1
20260902153120 30 9 1.6 3.2 0.00 0.00 0.00 69 1013.1
20260902152616 30 14 1.6 3.2 0.00 0.00 0.00 70 1013.1
20260902152112 30 7 3.2 3.2 0.00 0.00 0.00 70 1013.2
20260902151608 30 353 1.6 3.2 0.00 0.00 0.00 69 1013.1
20260902151107 30 335 3.2 4.8 0.00 0.00 0.00 70 1013.0
20260902150603 30 343 4.8 4.8 0.00 0.00 0.00 70 1013.0
20260902150058 30 326 4.8 4.8 0.00 0.00 0.00 68 1013.1
20260902145558 30 337 4.8 8.0 0.00 0.00 0.00 69 1013.1
20260902145057 30 359 1.6 4.8 0.00 0.00 0.00 70 1013.1
20260902144555 30 339 3.2 4.8 0.00 0.00 0.00 72 1013.2
20260902144055 30 0 1.6 3.2 0.00 0.00 0.00 71 1012.9
20260902143550 30 348 3.2 4.8 0.00 0.00 0.00 71 1013.0
20260902143045 29 352 4.8 4.8 0.00 0.00 0.00 71 1012.9
20260902142543 29 348 1.6 3.2 0.00 0.00 0.00 72 1013.1
20260902142036 28 3 3.2 3.2 0.00 0.00 0.00 73 1012.9
20260902141536 28 14 0.0 3.2 0.00 0.00 0.00 74 1012.9
20260902141031 28 319 4.8 4.8 0.00 0.00 0.00 75 1013.0
20260902140526 28 354 0.0 3.2 0.00 0.00 0.00 77 1012.9
20260902140021 27 15 0.0 1.6 0.00 0.00 0.00 79 1013.1
20260902135520 27 15 0.0 0.0 0.00 0.00 0.00 80 1012.9
20260902135015 27 15 0.0 0.0 0.00 0.00 0.00 80 1012.9
20260902134511 27 15 0.0 0.0 0.00 0.00 0.00 81 1013.1
20260902134006 27 15 0.0 0.0 0.00 0.00 0.00 81 1012.9
20260902133501 27 15 0.0 1.6 0.00 0.00 0.00 82 1013.3
20260902132955 26 15 0.0 0.0 0.00 0.00 0.00 82 1013.2
20260902132450 26 15 0.0 0.0 0.00 0.00 0.00 83 1013.1
20260902131945 26 15 0.0 1.6 0.00 0.00 0.00 83 1013.1
20260902131442 26 14 0.0 0.0 0.00 0.00 0.00 84 1013.1
20260902130941 26 17 0.0 1.6 0.00 0.00 0.00 84 1013.1
20260902130437 26 19 0.0 0.0 0.00 0.00 0.00 84 1013.1
20260902125932 26 18 1.6 1.6 0.00 0.00 0.00 84 1013.0
20260902125428 25 19 1.6 1.6 0.00 0.00 0.00 84 1013.2
20260902124924 25 8 1.6 1.6 0.00 0.00 0.00 85 1013.4
20260902124419 25 19 0.0 1.6 0.00 0.00 0.00 86 1013.4
20260902123914 25 7 1.6 1.6 0.00 0.00 0.00 87 1013.2
20260902123411 25 13 1.6 1.6 0.00 0.00 0.00 88 1013.4
20260902122909 25 19 0.0 1.6 0.00 0.00 0.00 88 1013.2
20260902122405 25 17 1.6 1.6 0.00 0.00 0.00 89 1013.3
20260902121900 25 359 3.2 3.2 0.00 0.00 0.00 90 1013.3
20260902121355 25 21 1.6 3.2 0.00 0.00 0.00 90 1013.5
20260902120850 25 15 0.0 1.6 0.00 0.00 0.00 90 1013.2
20260902120346 25 326 0.0 1.6 0.00 0.00 0.00 90 1013.2
20260902115840 24 325 1.6 3.2 0.00 0.00 0.00 91 1013.3
20260902115337 24 329 0.0 1.6 0.00 0.00 0.00 91 1013.1
20260902114833 24 317 3.2 3.2 0.00 0.00 0.00 91 1013.3
20260902114328 24 332 0.0 0.0 0.00 0.00 0.00 90 1012.9
20260902113828 24 333 0.0 0.0 0.00 0.00 0.00 90 1013.2
20260902113325 23 333 0.0 0.0 0.00 0.00 0.00 90 1013.0
20260902112823 23 334 0.0 0.0 0.00 0.00 0.00 90 1012.9
20260902112320 23 334 0.0 0.0 0.00 0.00 0.00 90 1012.8
20260902111815 23 334 0.0 0.0 0.00 0.00 0.00 90 1013.1
20260902111312 23 337 0.0 0.0 0.00 0.00 0.00 90 1013.1
20260902110807 23 337 0.0 0.0 0.00 0.00 0.00 90 1012.9
20260902110303 23 337 0.0 0.0 0.00 0.00 0.00 90 1012.6
20260902105802 23 337 0.0 0.0 0.00 0.00 0.00 90 1012.7
20260902105257 23 337 0.0 0.0 0.00 0.00 0.00 90 1012.7
20260902104753 23 337 0.0 0.0 0.00 0.00 0.00 90 1012.8
20260902104249 23 337 0.0 0.0 0.00 0.00 0.00 90 1012.6
20260902103749 23 338 0.0 0.0 0.00 0.00 0.00 89 1012.6
20260902103248 24 338 0.0 0.0 0.00 0.00 0.00 89 1012.7
20260902102744 24 338 0.0 0.0 0.00 0.00 0.00 89 1012.4
20260902102242 24 338 0.0 0.0 0.00 0.00 0.00 89 1012.5
20260902101737 24 338 0.0 0.0 0.00 0.00 0.00 89 1012.5
20260902101231 24 338 0.0 0.0 0.00 0.00 0.00 89 1012.5
20260902100731 24 338 0.0 0.0 0.00 0.00 0.00 89 1012.3
20260902100225 24 339 0.0 0.0 0.00 0.00 0.00 89 1012.3
20260902095720 24 336 0.0 0.0 0.00 0.00 0.00 89 1012.4
20260902095214 24 336 0.0 0.0 0.00 0.00 0.00 88 1012.3
20260902094708 24 336 0.0 0.0 0.00 0.00 0.00 88 1012.4
20260902094206 24 337 0.0 0.0 0.00 0.00 0.00 88 1012.5
20260902093704 24 337 0.0 0.0 0.00 0.00 0.00 88 1012.4
20260902093200 24 337 0.0 0.0 0.00 0.00 0.00 88 1012.5
20260902092700 24 336 0.0 0.0 0.00 0.00 0.00 88 1012.1
20260902092155 24 336 0.0 0.0 0.00 0.00 0.00 88 1012.4
20260902091654 24 336 0.0 0.0 0.00 0.00 0.00 87 1012.2
20260902091152 24 338 0.0 0.0 0.00 0.00 0.00 87 1012.2
20260902090647 24 336 0.0 0.0 0.00 0.00 0.00 87 1012.1
20260902090146 24 336 0.0 0.0 0.00 0.00 0.00 87 1012.1
20260902085641 24 336 0.0 0.0 0.00 0.00 0.00 87 1012.2
20260902085136 24 336 0.0 0.0 0.00 0.00 0.00 87 1012.1
20260902084632 24 336 0.0 0.0 0.00 0.00 0.00 86 1012.0
20260902084127 24 336 0.0 0.0 0.00 0.00 0.00 86 1011.9
20260902083623 25 336 0.0 0.0 0.00 0.00 0.00 86 1012.0
20260902083122 25 336 0.0 0.0 0.00 0.00 0.00 86 1011.9
20260902082618 25 336 0.0 0.0 0.00 0.00 0.00 86 1011.9
20260902082114 25 336 0.0 0.0 0.00 0.00 0.00 86 1011.8
20260902081611 25 336 0.0 0.0 0.00 0.00 0.00 86 1011.8
20260902081105 25 336 0.0 0.0 0.00 0.00 0.00 85 1011.9
20260902080600 25 335 0.0 0.0 0.00 0.00 0.00 85 1011.8
20260902080057 25 336 0.0 0.0 0.00 0.00 0.00 85 1011.6
20260902075556 25 335 0.0 0.0 0.00 0.00 0.00 85 1011.6
20260902075052 25 336 0.0 0.0 0.00 0.00 0.00 85 1011.8
20260902074547 25 335 0.0 0.0 0.00 0.00 0.00 85 1011.4
20260902074043 25 339 0.0 0.0 0.00 0.00 0.00 85 1011.7